Overview Statistics Trail Chart Weather Telemetry Raw packets
 

This is the latest recevied weather packets stored in our database for station/object OE6ATD-13. If no packets are shown the sender has not sent any weather packets the latest 10 day(s).

<< 22 23 24 25 26 27 28 >>
Time Temp. Humidity Pressure Rain* Wind** Luminosity Snow
1788363026 27.22° C 48% 1018.7 hPa 0 mm - 125 W/m² -
1788362422 27.78° C 42% 1018.7 hPa 0 mm - 117 W/m² -
1788361817 28.33° C 41% 1018.8 hPa 0 mm - 156 W/m² -
1788361228 28.33° C 40% 1018.8 hPa 0 mm - 292 W/m² -
1788360624 28.89° C 40% 1018.7 hPa 0 mm - 335 W/m² -
1788360020 28.33° C 41% 1018.9 hPa 0 mm - 401 W/m² -
1788359416 28.33° C 40% 1018.9 hPa 0 mm - 334 W/m² -
1788358827 28.33° C 40% 1018.9 hPa 0 mm - 297 W/m² -
1788358223 28.89° C 40% 1019 hPa 0 mm - 382 W/m² -
1788357619 28.33° C 42% 1019 hPa 0 mm - 381 W/m² -
1788357029 28.33° C 42% 1019.1 hPa 0 mm - 389 W/m² -
1788356425 28.89° C 43% 1019.2 hPa 0 mm - 369 W/m² -
1788355821 28.89° C 44% 1019.3 hPa 0 mm - 521 W/m² -
1788355217 28.89° C 44% 1019.4 hPa 0 mm - 575 W/m² -
1788354632 28.33° C 45% 1019.5 hPa 0 mm - 632 W/m² -
1788354023 28.33° C 44% 1019.6 hPa 0 mm - 616 W/m² -
1788353419 28.33° C 44% 1019.7 hPa 0 mm - 653 W/m² -
1788352815 28.89° C 44% 1019.9 hPa 0 mm - 676 W/m² -
1788352226 28.33° C 47% 1020.1 hPa 0 mm - 726 W/m² -
1788351622 27.78° C 47% 1020.2 hPa 0 mm - 749 W/m² -
1788351017 27.78° C 48% 1020.3 hPa 0 mm - 784 W/m² -
1788350428 27.22° C 48% 1020.5 hPa 0 mm - 783 W/m² -
1788349824 27.78° C 50% 1020.6 hPa 0 mm - 776 W/m² -
1788349220 27.78° C 51% 1020.6 hPa 0 mm - 825 W/m² -
1788348615 27.22° C 52% 1020.7 hPa 0 mm - 826 W/m² -

* Rain latest hour (hover to see other rain measurements)
** Current wind speed in m/s (hover to see current wind gust speed)